FW4117 Weather Reports


time (UTC)temp
C
wind
direction
speed
KPH
gust
KPH
rain 1hr
cm
rain 24hr
cm
rain mn
cm
humidity
%
barometer
mb
20260506132003 11 340 1.6 11.3 0.00 0.00 0.00 85 1013.7
20260506131503 11 341 3.2 11.3 0.00 0.00 0.00 84 1013.7
20260506131212 11 340 3.2 11.3 0.00 0.00 0.00 84 1013.6
20260506130713 11 339 3.2 16.1 0.00 0.00 0.00 85 1013.5
20260506130003 11 335 3.2 22.5 0.00 0.00 0.00 84 1013.2
20260506125503 11 332 4.8 22.5 0.00 0.00 0.00 84 1013.4
20260506125212 11 338 3.2 19.3 0.00 0.00 0.00 84 1013.3
20260506124503 11 340 1.6 11.3 0.00 0.00 0.00 84 1013.0
20260506124003 11 336 1.6 14.5 0.00 0.00 0.00 84 1013.0
20260506123503 11 335 1.6 14.5 0.00 0.00 0.00 83 1013.1
20260506123003 11 337 1.6 11.3 0.00 0.00 0.00 83 1013.2
20260506122713 11 340 1.6 11.3 0.00 0.00 0.00 83 1013.0
20260506122003 11 346 3.2 12.9 0.00 0.00 0.00 83 1013.1
20260506121503 11 349 3.2 12.9 0.00 0.00 0.00 82 1013.0
20260506121212 11 354 3.2 12.9 0.00 0.00 0.00 82 1012.9
20260506120503 11 345 3.2 14.5 0.00 0.00 0.00 82 1013.0
20260506120003 12 340 3.2 14.5 0.00 0.00 0.00 81 1012.9
20260506115503 12 339 3.2 16.1 0.00 0.00 0.00 81 1012.8
20260506115003 12 339 4.8 19.3 0.00 0.00 0.00 80 1012.9
20260506114503 12 340 3.2 19.3 0.00 0.00 0.00 79 1012.8
20260506114003 12 343 3.2 14.5 0.00 0.00 0.00 79 1012.7
20260506113503 12 343 3.2 16.1 0.00 0.00 0.00 79 1012.4
20260506113003 12 343 3.2 22.5 0.00 0.00 0.00 78 1012.5
20260506112503 12 347 3.2 22.5 0.00 0.00 0.00 78 1012.3
20260506112003 12 340 1.6 14.5 0.00 0.00 0.00 77 1012.2
20260506111503 12 339 1.6 9.7 0.00 0.00 0.00 77 1012.0
20260506111214 12 340 3.2 12.9 0.00 0.00 0.00 77 1011.9
20260506110712 12 344 3.2 17.7 0.00 0.00 0.00 76 1011.9
20260506110003 13 345 3.2 14.5 0.00 0.00 0.00 77 1011.9
20260506105503 13 357 1.6 14.5 0.00 0.00 0.00 77 1011.9
20260506105213 13 355 3.2 11.3 0.00 0.00 0.00 77 1011.7
20260506104503 13 341 1.6 11.3 0.00 0.00 0.00 77 1011.7
20260506104003 13 341 3.2 12.9 0.00 0.00 0.00 77 1011.6
20260506103503 13 340 3.2 16.1 0.00 0.00 0.00 76 1011.6
20260506103003 13 340 3.2 16.1 0.00 0.00 0.00 76 1011.5
20260506102503 13 347 3.2 16.1 0.00 0.00 0.00 76 1011.4
20260506102003 13 344 3.2 14.5 0.00 0.00 0.00 77 1011.3
20260506101503 13 348 3.2 11.3 0.00 0.00 0.00 77 1011.2
20260506101003 13 348 3.2 11.3 0.00 0.00 0.00 77 1011.0
20260506100503 13 330 1.6 9.7 0.00 0.00 0.00 77 1010.9
20260506100003 13 321 1.6 9.7 0.00 0.00 0.00 77 1011.0
20260506095503 13 329 1.6 11.3 0.00 0.00 0.00 76 1010.9
20260506095003 13 331 3.2 11.3 0.00 0.00 0.00 76 1010.8
20260506094503 13 334 3.2 12.9 0.00 0.00 0.00 77 1010.7
20260506094213 13 337 3.2 12.9 0.00 0.00 0.00 77 1010.6
20260506093503 13 334 1.6 12.9 0.00 0.00 0.00 77 1010.6
20260506093003 13 323 1.6 8.0 0.00 0.00 0.00 77 1010.7
20260506092503 13 323 1.6 11.3 0.00 0.00 0.00 77 1010.4
20260506092003 13 331 3.2 12.9 0.00 0.00 0.00 77 1010.5
20260506091503 13 327 1.6 12.9 0.00 0.00 0.00 77 1010.4
20260506091003 13 330 1.6 9.7 0.00 0.00 0.00 77 1010.3
20260506090503 14 331 1.6 11.3 0.00 0.00 0.00 77 1010.5
20260506090003 14 333 1.6 11.3 0.00 0.00 0.00 77 1010.5
20260506085503 14 329 1.6 9.7 0.00 0.00 0.00 77 1010.3
20260506085003 14 330 1.6 9.7 0.00 0.00 0.00 77 1010.1
20260506084503 14 340 1.6 8.0 0.00 0.00 0.00 77 1010.2
20260506084213 14 354 1.6 6.4 0.00 0.00 0.00 78 1010.0
20260506083503 14 339 1.6 11.3 0.00 0.00 0.00 77 1010.0
20260506083003 14 347 1.6 11.3 0.00 0.00 0.00 78 1009.9
20260506082503 14 355 0.0 6.4 0.00 0.00 0.00 78 1009.9
20260506082213 14 334 1.6 9.7 0.00 0.00 0.00 78 1009.9
20260506081503 14 337 1.6 9.7 0.00 0.00 0.00 78 1010.0
20260506081003 14 344 1.6 14.5 0.00 0.00 0.00 78 1010.0
20260506080503 15 342 3.2 14.5 0.00 0.00 0.00 78 1010.0
20260506073503 15 339 1.6 12.9 0.00 0.00 0.00 78 1009.9
20260506073003 15 347 1.6 8.0 0.00 0.00 0.00 78 1009.6
20260506072503 15 349 1.6 8.0 0.00 0.00 0.00 78 1009.3
20260506072003 15 346 1.6 6.4 0.00 0.00 0.00 78 1009.3
20260506071503 15 341 0.0 6.4 0.00 0.00 0.00 79 1009.2
20260506071003 15 337 1.6 9.7 0.00 0.00 0.00 79 1009.2
20260506070503 15 338 1.6 9.7 0.00 0.00 0.00 78 1009.3
20260506062003 15 341 3.2 12.9 0.00 0.00 0.00 79 1009.8
20260506061503 15 339 3.2 12.9 0.00 0.00 0.00 80 1009.5
20260506061003 15 343 3.2 12.9 0.00 0.00 0.00 80 1009.5
20260506060503 15 339 3.2 12.9 0.00 0.00 0.00 80 1009.5
20260506051003 16 341 3.2 12.9 0.00 0.00 0.00 80 1009.8
20260506050712 16 332 3.2 12.9 0.00 0.00 0.00 80 1009.8
20260506045003 16 346 3.2 14.5 0.00 0.00 0.00 80 1009.6
20260506044503 16 338 1.6 14.5 0.00 0.00 0.00 80 1009.6
20260506044003 16 317 1.6 11.3 0.00 0.00 0.00 80 1009.5
20260506043503 16 324 1.6 12.9 0.00 0.00 0.00 79 1009.6
20260506043003 16 338 3.2 17.7 0.00 0.00 0.00 79 1009.5
20260506042503 16 344 3.2 17.7 0.00 0.00 0.00 79 1009.5
20260506042003 16 340 3.2 14.5 0.00 0.00 0.00 79 1009.5
20260506041503 16 337 3.2 12.9 0.00 0.00 0.00 79 1009.5
20260506041003 17 335 3.2 17.7 0.00 0.00 0.00 79 1009.5
20260506040503 17 337 3.2 17.7 0.00 0.00 0.00 79 1009.5
20260506040213 17 339 3.2 16.1 0.00 0.00 0.00 79 1009.6
20260506035503 17 344 3.2 14.5 0.00 0.00 0.00 78 1009.4
20260506035003 17 339 1.6 12.9 0.00 0.00 0.00 78 1009.3
20260506034714 17 332 1.6 11.3 0.00 0.00 0.00 78 1009.1
20260506034003 17 341 1.6 11.3 0.00 0.00 0.00 78 1009.0
20260506033503 17 343 1.6 11.3 0.00 0.00 0.00 78 1008.7
20260506033003 17 337 3.2 17.7 0.00 0.00 0.00 78 1008.7
20260506032503 17 334 3.2 17.7 0.00 0.00 0.00 77 1008.3
20260506032003 18 341 3.2 14.5 0.00 0.00 0.00 77 1008.2
20260506031714 18 339 3.2 14.5 0.00 0.00 0.00 77 1008.3
20260506031213 18 346 3.2 14.5 0.00 0.00 0.00 77 1008.3
20260506030714 18 350 1.6 9.7 0.00 0.00 0.00 76 1008.3
20260506030212 18 340 1.6 11.3 0.00 0.00 0.00 77 1008.3
20260506025713 18 328 1.6 11.3 0.00 0.00 0.00 76 1008.2
20260506025003 19 326 3.2 12.9 0.00 0.00 0.00 76 1008.1
20260506024503 19 343 1.6 12.9 0.00 0.00 0.00 76 1008.0
20260506024003 20 349 1.6 11.3 0.00 0.00 0.00 76 1007.7
20260506023503 20 341 1.6 11.3 0.00 0.00 0.00 75 1007.8
20260506023003 20 342 1.6 11.3 0.00 0.00 0.00 75 1007.6
20260506022503 20 343 1.6 8.0 0.00 0.00 0.00 75 1007.6
20260506022003 20 339 1.6 9.7 0.00 0.00 0.00 75 1007.6
20260506021503 20 331 1.6 9.7 0.00 0.00 0.00 74 1007.1
20260506021003 20 335 1.6 8.0 0.00 0.00 0.00 74 1007.2
20260506020713 20 343 1.6 9.7 0.00 0.00 0.00 74 1007.1
20260506020003 20 336 1.6 9.7 0.00 0.00 0.00 74 1006.9
20260506015503 20 332 1.6 9.7 0.00 0.00 0.00 74 1007.2
20260506015003 20 330 1.6 9.7 0.00 0.00 0.00 74 1006.8
20260506014503 20 337 3.2 14.5 0.00 0.00 0.00 74 1006.5
20260506014003 20 344 3.2 14.5 0.00 0.00 0.00 73 1006.5
20260506013503 20 341 3.2 12.9 0.00 0.00 0.00 73 1006.5
20260506013003 20 341 1.6 9.7 0.00 0.00 0.00 72 1006.6
20260506012713 20 337 1.6 9.7 0.00 0.00 0.00 72 1006.4
20260506012003 21 340 3.2 12.9 0.00 0.00 0.00 72 1006.2
20260506011713 21 340 3.2 12.9 0.00 0.00 0.00 72 1005.8
20260506011214 21 338 3.2 12.9 0.00 0.00 0.00 71 1006.1
20260506010713 21 340 1.6 9.7 0.00 0.00 0.00 71 1006.0
20260506010003 21 337 1.6 9.7 0.00 0.00 0.00 72 1005.7
20260506005503 21 342 3.2 12.9 0.00 0.00 0.00 72 1005.4
20260506005003 22 338 3.2 17.7 0.00 0.00 0.00 71 1005.7
20260506004503 22 331 3.2 17.7 0.00 0.00 0.00 70 1005.6
20260506004003 22 335 1.6 12.9 0.00 0.00 0.00 71 1005.4
20260506003503 22 347 1.6 11.3 0.00 0.00 0.00 71 1005.3
20260506003003 22 338 1.6 14.5 0.00 0.00 0.00 70 1004.9
20260506002503 22 343 3.2 16.1 0.00 0.00 0.00 70 1005.1
20260506002003 23 350 3.2 16.1 0.00 0.00 0.00 70 1005.1
20260506001503 23 348 3.2 12.9 0.00 0.00 0.00 69 1004.9
20260506001003 23 342 1.6 11.3 0.00 0.00 0.00 69 1004.9
20260506000503 23 334 1.6 12.9 0.00 0.00 0.00 69 1004.9
20260506000003 23 341 1.6 12.9 0.00 0.00 0.00 68 1004.8
20260505235503 24 349 1.6 11.3 0.00 0.00 0.00 67 1004.9
20260505235003 24 350 3.2 16.1 0.00 0.00 0.00 67 1004.8
20260505234503 25 344 3.2 16.1 0.00 0.00 0.00 66 1004.8
20260505234003 25 337 1.6 12.9 0.00 0.00 0.00 66 1004.7
20260505233503 25 346 1.6 11.3 0.00 0.00 0.00 65 1004.7
20260505233003 25 349 1.6 11.3 0.00 0.00 0.00 65 1004.4
20260505232503 25 338 1.6 9.7 0.00 0.00 0.00 65 1004.4
20260505232213 26 344 1.6 16.1 0.00 0.00 0.00 64 1004.3
20260505231503 26 332 3.2 16.1 0.00 0.00 0.00 64 1004.6
20260505231003 26 321 3.2 16.1 0.00 0.00 0.00 63 1004.3
20260505230712 26 329 1.6 12.9 0.00 0.00 0.00 63 1004.2
20260505230003 27 317 3.2 12.9 0.00 0.00 0.00 62 1004.1
20260505225503 27 307 1.6 12.9 0.00 0.00 0.00 61 1004.1
20260505225003 27 320 1.6 12.9 0.00 0.00 0.00 60 1004.2
20260505224503 27 324 1.6 8.0 0.00 0.00 0.00 60 1004.0
20260505224003 27 336 3.2 12.9 0.00 0.00 0.00 60 1003.7
20260505223503 28 332 3.2 12.9 0.00 0.00 0.00 60 1003.6
20260505223003 28 315 1.6 9.7 0.00 0.00 0.00 60 1003.6
20260505222503 28 296 3.2 12.9 0.00 0.00 0.00 60 1003.7
20260505222003 28 298 3.2 12.9 0.00 0.00 0.00 59 1003.6
20260505221503 29 325 1.6 12.9 0.00 0.00 0.00 57 1003.5
20260505221003 30 323 1.6 11.3 0.00 0.00 0.00 58 1003.3
20260505220714 30 306 1.6 9.7 0.00 0.00 0.00 56 1003.4
20260505220003 30 328 1.6 9.7 0.00 0.00 0.00 53 1003.4
20260505215503 30 319 1.6 8.0 0.00 0.00 0.00 52 1003.3
20260505215213 30 311 1.6 9.7 0.00 0.00 0.00 52 1003.2
20260505214503 30 312 3.2 11.3 0.00 0.00 0.00 50 1003.3
20260505214003 31 310 1.6 11.3 0.00 0.00 0.00 49 1003.6
20260505213503 31 297 3.2 16.1 0.00 0.00 0.00 48 1003.5
20260505213003 31 274 3.2 16.1 0.00 0.00 0.00 50 1003.4
20260505212713 31 279 3.2 12.9 0.00 0.00 0.00 50 1003.4
20260505212213 31 303 1.6 12.9 0.00 0.00 0.00 49 1003.3
20260505211503 31 326 1.6 8.0 0.00 0.00 0.00 50 1003.3
20260505211213 31 296 3.2 17.7 0.00 0.00 0.00 49 1003.4
20260505210503 32 266 4.8 17.7 0.00 0.00 0.00 50 1003.4
20260505210003 33 256 4.8 16.1 0.00 0.00 0.00 53 1003.5
20260505205503 32 245 4.8 16.1 0.00 0.00 0.00 53 1003.3
20260505205003 33 231 4.8 12.9 0.00 0.00 0.00 54 1003.3
20260505204503 33 212 4.8 12.9 0.00 0.00 0.00 53 1003.4
20260505204003 33 208 6.4 14.5 0.00 0.00 0.00 52 1003.5
20260505203503 33 215 4.8 14.5 0.00 0.00 0.00 53 1003.5
20260505203003 33 214 4.8 14.5 0.00 0.00 0.00 53 1003.6
20260505202503 32 228 4.8 14.5 0.00 0.00 0.00 55 1003.7
20260505202003 32 214 6.4 17.7 0.00 0.00 0.00 54 1003.6
20260505201503 32 225 6.4 17.7 0.00 0.00 0.00 54 1003.6
20260505201003 32 247 6.4 17.7 0.00 0.00 0.00 55 1003.7
20260505200503 32 231 8.0 16.1 0.00 0.00 0.00 54 1003.9
20260505200003 32 210 6.4 20.9 0.00 0.00 0.00 54 1003.8
20260505195503 32 205 4.8 20.9 0.00 0.00 0.00 57 1003.8
20260505195003 32 213 4.8 14.5 0.00 0.00 0.00 57 1003.9
20260505194503 32 223 6.4 19.3 0.00 0.00 0.00 56 1004.0
20260505194003 31 208 6.4 19.3 0.00 0.00 0.00 57 1003.9
20260505193713 31 208 6.4 19.3 0.00 0.00 0.00 57 1003.9
20260505193003 31 219 6.4 17.7 0.00 0.00 0.00 59 1004.0
20260505192503 31 220 6.4 12.9 0.00 0.00 0.00 59 1004.0
20260505192003 31 222 6.4 17.7 0.00 0.00 0.00 60 1004.1
20260505191713 31 217 6.4 17.7 0.00 0.00 0.00 61 1003.7
20260505191003 31 211 6.4 17.7 0.00 0.00 0.00 62 1003.7
20260505190503 31 211 6.4 17.7 0.00 0.00 0.00 62 1003.9
20260505190003 31 204 4.8 16.1 0.00 0.00 0.00 63 1003.9
20260505185503 31 203 6.4 14.5 0.00 0.00 0.00 64 1003.9
20260505185003 30 209 6.4 17.7 0.00 0.00 0.00 64 1003.7
20260505184503 30 197 6.4 17.7 0.00 0.00 0.00 65 1003.9
20260505184003 30 192 6.4 19.3 0.00 0.00 0.00 65 1003.9
20260505183503 29 201 6.4 19.3 0.00 0.00 0.00 66 1003.9
20260505183213 29 198 6.4 17.7 0.00 0.00 0.00 66 1004.0
20260505182503 29 188 6.4 19.3 0.00 0.00 0.00 66 1004.0
20260505182213 29 197 6.4 20.9 0.00 0.00 0.00 67 1004.0
20260505181503 29 169 8.0 20.9 0.00 0.00 0.00 66 1004.0
20260505181003 29 148 6.4 17.7 0.00 0.00 0.00 68 1003.9
20260505180712 29 153 6.4 17.7 0.00 0.00 0.00 67 1003.9
20260505180003 29 193 6.4 17.7 0.00 0.00 0.00 67 1004.1
20260505175503 29 189 8.0 20.9 0.00 0.00 0.00 66 1004.2
20260505175003 29 193 8.0 20.9 0.00 0.00 0.00 66 1004.2
20260505174503 29 183 8.0 19.3 0.00 0.00 0.00 67 1004.1
20260505174003 29 189 8.0 19.3 0.00 0.00 0.00 67 1004.0
20260505173503 28 181 8.0 20.9 0.00 0.00 0.00 68 1004.1
20260505173003 28 158 8.0 20.9 0.00 0.00 0.00 68 1004.0
20260505172503 28 167 8.0 19.3 0.00 0.00 0.00 68 1004.0
20260505172213 28 155 8.0 19.3 0.00 0.00 0.00 68 1004.0
20260505171503 28 167 8.0 17.7 0.00 0.00 0.00 69 1004.0
20260505171003 28 181 8.0 16.1 0.00 0.00 0.00 69 1004.1
20260505170503 28 190 6.4 16.1 0.00 0.00 0.00 69 1004.1
20260505170003 28 184 6.4 16.1 0.00 0.00 0.00 69 1004.0
20260505165503 28 198 6.4 17.7 0.00 0.00 0.00 71 1004.1
20260505165003 27 186 8.0 17.7 0.00 0.00 0.00 71 1004.1
20260505164503 27 182 6.4 17.7 0.00 0.00 0.00 72 1004.2
20260505164213 27 193 8.0 17.7 0.00 0.00 0.00 72 1004.1
20260505163503 27 205 8.0 17.7 0.00 0.00 0.00 73 1004.0
20260505163003 27 175 8.0 22.5 0.00 0.00 0.00 72 1004.1
20260505162503 26 151 8.0 22.5 0.00 0.00 0.00 72 1004.0
20260505162003 27 150 8.0 20.9 0.00 0.00 0.00 72 1004.0
20260505161503 27 156 8.0 22.5 0.00 0.00 0.00 73 1004.0
20260505161003 27 171 6.4 22.5 0.00 0.00 0.00 73 1004.0
20260505160503 26 169 6.4 14.5 0.00 0.00 0.00 74 1003.8
20260505153003 25 174 6.4 17.7 0.00 0.00 0.00 78 1003.9
20260505152503 25 178 6.4 17.7 0.00 0.00 0.00 78 1003.7
20260505152212 25 179 6.4 20.9 0.00 0.00 0.00 78 1003.8
20260505151713 25 152 8.0 20.9 0.00 0.00 0.00 78 1003.7
20260505151003 25 157 6.4 14.5 0.00 0.00 0.00 78 1003.6
20260505150503 25 141 6.4 14.5 0.00 0.00 0.00 78 1003.7
20260505140503 23 148 6.4 19.3 0.00 0.00 0.00 83 1003.6
20260505140214 23 152 6.4 19.3 0.00 0.00 0.00 83 1003.4